Regional Weather Roundup
Issued by NWS

Home | Current Version | Previous Version | Graphics & Text | Print | Product List | Glossary On
Versions: 1 2 3 4 5 6 7 8 9 10 11 12 13 14 15 16 17 18 19 20 21 22 23 24 25 26 27 28 29 30 31 32 33 34 35 36 37 38 39 40 41 42 43 44 45 46 47 48 49 50
000
ASUS43 KFSD 011002
RWRSD

WEATHER ROUNDUP FOR SOUTH DAKOTA
NATIONAL WEATHER SERVICE SIOUX FALLS SD
500 AM CDT SAT AUG 01 2015

NOTE: "FAIR" INDICATES FEW OR NO CLOUDS BELOW 12,000 FEET WITH NO
SIGNIFICANT WEATHER AND/OR OBSTRUCTIONS TO VISIBILITY.


SDZ001>005-009-010-012>017-011100-
NORTHWEST AND NORTH CENTRAL SOUTH DAKOTA

CITY           SKY/WX    TMP DP  RH WIND       PRES   REMARKS
BUFFALO          N/A     64  50  60 W8        29.95S
FAITH            N/A     69  54  58 S16       29.98F
MOBRIDGE       PTCLDY    64  59  83 E8        29.95F
$$

SDZ012>016-024>037-041>051-057-063-072>074-011100-
SOUTHWEST AND SOUTH CENTRAL SOUTH DAKOTA

CITY           SKY/WX    TMP DP  RH WIND       PRES   REMARKS
RAPID CTY ARPT PTCLDY    64  56  75 NE8       30.04F
PIERRE         CLEAR     72  61  68 S13       29.96F
CUSTER         PTCLDY    57  48  72 NW3       30.19F
PHILIP         MOCLDY    73  63  70 S12G22    29.99S
PINE RIDGE     CLEAR     61  52  72 NW3       30.05F
WINNER         FAIR      75  60  59 S7        30.02F
$$

SDZ004>011-016>023-039-040-011100-
NORTHEAST SOUTH DAKOTA

CITY           SKY/WX    TMP DP  RH WIND       PRES   REMARKS
ABERDEEN       PTCLDY    59  54  83 N3        29.99F
WATERTOWN      CLEAR     62  57  83 SE3       30.02F
BROOKINGS      CLEAR     63  57  82 N3        30.04R
SISSETON         N/A     57  56  96 CALM      29.98F
$$

SDZ017-020-022-023-036>040-048>070-011100-
SOUTHEAST SOUTH DAKOTA

CITY           SKY/WX    TMP DP  RH WIND       PRES   REMARKS
SIOUX FALLS    CLEAR     69  65  86 SW6       30.00F
HURON            N/A     63  61  93 NE7       29.99S
CHAMBERLAIN    PTCLDY    64  63  94 SW3       30.00F
MITCHELL       CLEAR     67  65  93 SW5       29.99F
YANKTON          N/A     64  63  94 SE6       30.00F VSB 1/4
$$

ABBREVIATIONS USED IN REMARKS
   TC - TEMPERATURE IN CELSIUS
  WCI - WIND CHILL INDEX
   HX - HEAT INDEX
  VSB - VISIBILITY




USA.gov is the U.S. government's official web portal to all federal, state and local government web resources and services.